EDDM

Munich Airport

Airport
ICAO code
EDDM
IATA Code
MUC
Summary
ICAO Region
EUR
ICAO Territory
Location

Freisig,

Serving
Munich
Elevation
1487 ft
Coordinates
48° 21' 14" N , 11° 46' 54" E
KCC
Metar
Observation
EDDM 061550Z AUTO 34004KT 9999 FEW025 M01/M06 Q1034 BECMG 06005KT
Station
Munchen
Date/Time
2023-02-06 15:50:00
Wind direction
340°
Wind speed
04 kts
Lowest cloud amount
few clouds
Temperature
-1°C
Dew point
-6°C
Humidity
68%
QNH
1034 hPa
Weather condition
n/a

Description

International airport serving Munich in Southern Germany.

Climatology

Humid Continental climate (Köppen climate classification Dfb) - Variable weather patterns and a large seasonal temperature variance. Summers are often warm and humid with frequent thunderstorms and winters can be very cold with frequent snowfall and persistent snow cover.

Munich's altitude and proximity to the northern edge of the Alps mean that precipitation is high. Rain storms often come violently and unexpectedly. The range of temperature between day and night or summer and winter can be extreme. A warm downwind from the Alps (a föhn wind) can change the temperatures completely within a few hours, even in the winter.

Runways

Designator Length Width Surface Rops
08L/26R 4000 60 CON Yes/Yes
08R/26L 4000 60 CON Yes/Yes

SKYbrary Partners:

Safety knowledge contributed by: